[[{"header":{"parameterUnit":"m.s-1","parameterCategory":1,"la1":30.2991,"la2":30.254,"lo1":-89.0895,"lo2":-89.0444,"dx":0.0017,"dy":0.0017,"nx":28,"ny":28,"refTime":"2022-11-08T09:00:00:Z","depth":0,"parameterNumber":2,"parameterNumberName":"U-component_of_WINDS"},"data":[0,0,0,0,0,0,0,0,0,0,0,0,0,0,0,0,0,0,0,0,0,0,0,0,0,0,0,0,0,0,0,0,0,0,0,0,0,0,0,0,0,0,0,0,0,0,0,0,0,0,0,0,0,0,0,0,0,0,-2.2876,-2.2875,0,-2.2859,-2.2858,-2.2858,-2.277,-2.2768,-2.2766,-2.2764,-2.2749,-2.2751,-2.2752,0,0,0,0,0,0,0,0,0,0,0,0,0,-2.2834,-2.2835,-2.2876,-2.2875,-2.2875,-2.2859,-2.2858,-2.2858,-2.277,-2.2768,-2.2765,-2.2763,-2.2749,-2.275,-2.2752,0,0,0,0,0,0,0,0,0,0,0,0,0,-2.2838,-2.2836,-2.2876,-2.2829,-2.2825,-2.2859,-2.2858,-2.2858,-2.2771,-2.2768,-2.2764,-2.2761,-2.2748,-2.275,-2.2753,-2.2831,0,0,-2.276,-2.2761,0,0,0,0,0,0,0,0,-2.2838,-2.284,-2.2836,-2.2832,-2.2828,-2.2813,-2.2838,-2.2849,-2.2772,-2.2791,-2.2764,-2.276,-2.2773,-2.2773,-2.2777,-2.283,-2.283,-2.276,-2.2762,-2.2763,-2.2763,0,0,0,0,0,0,0,-2.2838,-2.284,-2.2869,-2.2836,-2.2831,-2.281,-2.2807,-2.284,-2.28,-2.2789,-2.2783,-2.2782,-2.277,-2.2775,-2.2776,-2.2829,-2.276,-2.2762,-2.2764,-2.2765,-2.2947,-2.295,0,0,0,0,0,0,-2.2844,-2.2841,-2.2869,-2.2868,-2.2825,-2.2813,-2.281,-2.2821,-2.28,-2.2793,-2.2785,-2.2778,-2.2773,-2.2773,-2.2775,-2.2867,-2.2763,-2.2765,-2.2766,-2.2944,-2.2948,-2.2952,0,0,0,0,0,0,-2.2843,-2.2847,-2.287,-2.2853,-2.2854,-2.2817,-2.283,-2.2822,-2.2827,-2.2796,-2.2789,-2.2797,-2.277,-2.2772,-2.2818,-2.2865,-2.2766,-2.2768,-2.294,-2.2945,-2.295,-2.3049,0,0,0,0,0,0,-2.2843,-2.2848,-2.2876,-2.2854,-2.2855,-2.2912,-2.2833,-2.2824,-2.2831,-2.2822,-2.2806,-2.28,-2.2768,-2.2815,-2.282,-2.2866,-2.277,-2.2935,-2.2942,-2.2948,-2.3042,-2.3057,-2.3071,0,0,0,0,0,-2.2841,-2.2905,-2.2878,-2.2882,-2.289,-2.2915,-2.2916,-2.2877,-2.2835,-2.2864,-2.2845,-2.28,-2.2859,-2.282,-2.2826,-2.2873,-2.2932,-2.294,-2.2948,-2.3035,-2.3054,-2.307,0,0,0,0,0,0,-2.2935,-2.2902,-2.2871,-2.293,-2.2926,-2.29,-2.2936,-2.2898,-2.2907,-2.2898,-2.285,-2.2847,-2.2901,-2.2891,-2.2849,-2.2948,-2.2888,-2.2897,-2.2953,-2.2971,-2.2985,-2.2987,-2.2772,0,0,0,0,0,-2.2962,-2.2985,-2.2954,-2.3009,-2.3008,-2.2973,-2.2982,-2.2952,-2.2947,-2.2945,-2.2929,-2.2926,-2.2943,-2.2956,-2.2971,-2.3039,-2.3036,-2.3075,-2.3089,-2.3101,-2.311,-2.3148,-2.3165,-2.2977,-2.2977,-2.2977,0,0,-2.3019,-2.3004,-2.3021,-2.3027,-2.3021,-2.3046,-2.2972,-2.3002,-2.302,-2.295,-2.2992,-2.298,-2.2974,-2.3032,-2.3057,-2.3026,-2.3161,-2.3111,-2.3121,-2.3123,-2.3158,-2.3175,-2.3191,-2.2982,-2.2981,-2.298,0,0,-2.3136,-2.3126,-2.3171,-2.3166,-2.3157,-2.3133,-2.3144,-2.3124,-2.3113,-2.3155,-2.3103,-2.3124,-2.3155,-2.3154,-2.3157,-2.3274,-2.3234,-2.328,-2.3356,-2.3393,-2.3407,-2.342,-2.3464,-2.348,-2.3288,-2.3289,-2.3289,0,-2.3208,-2.3243,-2.3199,-2.3232,-2.3237,-2.3174,-2.322,-2.3217,-2.3214,-2.322,-2.3185,-2.3223,-2.3214,-2.3272,-2.33,-2.3304,-2.3317,-2.3282,-2.3409,-2.3421,-2.3433,-2.3474,-2.349,-2.3294,-2.3294,-2.3293,-2.3293,0,-2.3334,-2.3359,-2.3396,-2.3394,-2.3403,-2.3443,-2.3406,-2.342,-2.339,-2.337,-2.3414,-2.3401,-2.3412,-2.3423,-2.3394,-2.3477,-2.3459,-2.3417,-2.3356,-2.3457,-2.3495,-2.351,-2.3303,-2.3301,-2.3299,-2.3297,0,0,-2.351,-2.3483,-2.3497,-2.3496,-2.3482,-2.3501,-2.3538,-2.3548,-2.3563,-2.3563,-2.3594,-2.3622,-2.3583,-2.3587,-2.3557,-2.3589,-2.3684,-2.3543,-2.3542,-2.3571,-2.3777,-2.381,-2.3829,-2.3657,-2.366,-2.3662,-2.3779,0,-2.3623,-2.3684,-2.3646,-2.3714,-2.3737,-2.3677,-2.371,-2.3705,-2.3688,-2.3706,-2.3686,-2.3708,-2.3654,-2.3656,-2.3685,-2.3667,-2.3725,-2.3657,-2.3687,-2.3689,-2.3693,-2.3848,-2.3883,-2.3993,-2.3793,-2.3795,-2.3797,0,-2.3763,-2.3769,-2.384,-2.3821,-2.383,-2.386,-2.3867,-2.3884,-2.3878,-2.3863,-2.3868,-2.383,-2.3866,-2.3804,-2.3855,-2.381,-2.3819,-2.3812,-2.3816,-2.3818,-2.3751,-2.3857,-2.4027,-2.4045,-2.3819,-2.3818,-2.3816,0,-2.3887,-2.3912,-2.3958,-2.3958,-2.3938,-2.3961,-2.3954,-2.3944,-2.3953,-2.3959,-2.3965,-2.3976,-2.3982,-2.3992,-2.3959,-2.3916,-2.4014,-2.3949,-2.4004,-2.4005,-2.4029,-2.4028,-2.4205,-2.4033,-2.4032,-2.4032,-2.4032,0,-2.4019,-2.4064,-2.4013,-2.4042,-2.4092,-2.4047,-2.4098,-2.4084,-2.4077,-2.4102,-2.4051,-2.4076,-2.4029,-2.405,-2.4024,-2.4071,-2.4074,-2.4064,-2.4057,-2.4069,-2.4071,-2.4076,-2.4069,-2.4036,-2.4035,-2.4035,-2.4034,0,-2.4166,-2.4133,-2.4179,-2.4156,-2.4151,-2.419,-2.417,-2.4196,-2.4174,-2.4208,-2.4213,-2.418,-2.4202,-2.4169,-2.4187,-2.4169,-2.4235,-2.4215,-2.4237,-2.4232,-2.4289,-2.4285,-2.4478,-2.4501,-2.4312,-2.4314,-2.4315,0,-2.4253,-2.4287,-2.4267,-2.428,-2.4276,-2.4297,-2.4306,-2.4264,-2.4276,-2.4272,-2.4299,-2.4316,-2.4328,-2.4366,-2.4344,-2.4359,-2.434,-2.4406,-2.4342,-2.4354,-2.4343,-2.4343,-2.4347,-2.442,-2.4423,-2.4424,-2.4426,0,-2.4411,-2.4393,-2.4408,-2.4418,-2.443,-2.4435,-2.4437,-2.4451,-2.4406,-2.4422,-2.4444,-2.4453,-2.4471,-2.449,-2.4499,-2.4492,-2.4453,-2.4446,-2.446,-2.4474,-2.4487,-2.4483,-2.4275,-2.4442,-2.4441,-2.444,-2.4439,-2.4438,-2.4532,-2.456,-2.4551,-2.4569,-2.4566,-2.4569,-2.4593,-2.4574,-2.4591,-2.4603,-2.4576,-2.4605,-2.4599,-2.4606,-2.4604,-2.4627,-2.4598,-2.4617,-2.4623,-2.4629,-2.4639,-2.4481,-2.4628,-2.4627,-2.4627,-2.4626,-2.4626,0,-2.4689,-2.4681,-2.4698,-2.4702,-2.4717,-2.4677,-2.4677,-2.4692,-2.4718,-2.4715,-2.4728,-2.4753,-2.4771,-2.4751,-2.4766,-2.4788,-2.477,-2.4793,-2.4792,-2.4792,-2.4663,-2.465,-2.4807,-2.4807,-2.4807,-2.4807,-2.4807,-2.4807,-2.4773,-2.4819,-2.48,-2.4844,-2.4835,-2.4862,-2.4866,-2.4869,-2.4867,-2.4897,-2.4912,-2.4898,-2.4889,-2.4902,-2.4918,-2.4911,-2.492,-2.495,-2.4938,-2.4818,-2.4801,-2.4784,-2.4772,-2.4952,-2.4952,-2.5065,-2.5066,-2.5067]},{"header":{"parameterUnit":"m.s-1","parameterCategory":1,"la1":30.2991,"la2":30.254,"lo1":-89.0895,"lo2":-89.0444,"dx":0.0017,"dy":0.0017,"nx":28,"ny":28,"refTime":"2022-11-08T09:00:00:Z","depth":0,"parameterNumber":3,"parameterNumberName":"V-component_of_WINDS"},"data":[0,0,0,0,0,0,0,0,0,0,0,0,0,0,0,0,0,0,0,0,0,0,0,0,0,0,0,0,0,0,0,0,0,0,0,0,0,0,0,0,0,0,0,0,0,0,0,0,0,0,0,0,0,0,0,0,0,0,-3.0646,-3.0646,0,-3.0675,-3.0675,-3.0675,-3.0654,-3.0653,-3.0652,-3.0652,-3.0678,-3.0679,-3.0681,0,0,0,0,0,0,0,0,0,0,0,0,0,-3.0568,-3.0569,-3.0645,-3.0646,-3.0646,-3.0675,-3.0675,-3.0675,-3.0654,-3.0653,-3.0652,-3.0651,-3.0677,-3.0679,-3.0681,0,0,0,0,0,0,0,0,0,0,0,0,0,-3.06,-3.057,-3.0645,-3.0639,-3.0639,-3.0675,-3.0675,-3.0676,-3.0655,-3.0653,-3.0652,-3.0651,-3.0676,-3.0679,-3.0681,-3.0723,0,0,-3.0688,-3.0689,0,0,0,0,0,0,0,0,-3.0598,-3.0603,-3.064,-3.064,-3.064,-3.066,-3.0657,-3.0691,-3.0655,-3.0649,-3.0652,-3.065,-3.0672,-3.0675,-3.0683,-3.0724,-3.0725,-3.0688,-3.069,-3.0691,-3.0691,0,0,0,0,0,0,0,-3.0596,-3.0601,-3.0657,-3.064,-3.064,-3.0634,-3.0637,-3.0664,-3.0668,-3.0649,-3.0648,-3.0652,-3.0672,-3.0681,-3.0684,-3.0726,-3.0688,-3.069,-3.0692,-3.0693,-3.0803,-3.0804,0,0,0,0,0,0,-3.0595,-3.0599,-3.0656,-3.0658,-3.0615,-3.0636,-3.064,-3.0654,-3.0667,-3.0668,-3.0653,-3.0651,-3.0678,-3.0681,-3.0685,-3.0735,-3.0691,-3.0693,-3.0694,-3.0801,-3.0803,-3.0805,0,0,0,0,0,0,-3.0593,-3.06,-3.0655,-3.0628,-3.0635,-3.0639,-3.0656,-3.0656,-3.0665,-3.067,-3.0671,-3.0662,-3.0677,-3.0681,-3.0714,-3.0735,-3.0694,-3.0696,-3.0799,-3.0802,-3.0804,-3.0835,0,0,0,0,0,0,-3.0591,-3.0599,-3.0616,-3.0629,-3.0636,-3.0685,-3.0657,-3.0657,-3.0669,-3.0667,-3.0679,-3.0679,-3.0676,-3.0711,-3.0716,-3.0738,-3.0698,-3.0797,-3.08,-3.0803,-3.0832,-3.0839,-3.0844,0,0,0,0,0,-3.0588,-3.0623,-3.0617,-3.0624,-3.0658,-3.0686,-3.069,-3.0687,-3.0671,-3.0688,-3.0691,-3.0679,-3.0732,-3.0714,-3.072,-3.0743,-3.0796,-3.0799,-3.0803,-3.083,-3.0837,-3.0844,0,0,0,0,0,0,-3.0611,-3.0625,-3.0618,-3.0659,-3.0672,-3.0682,-3.0703,-3.0695,-3.0712,-3.0708,-3.0703,-3.0705,-3.074,-3.0744,-3.0724,-3.0784,-3.0761,-3.0766,-3.078,-3.0787,-3.0793,-3.079,-3.07,0,0,0,0,0,-3.0621,-3.0645,-3.0654,-3.0689,-3.0696,-3.0699,-3.0711,-3.0707,-3.072,-3.0725,-3.0731,-3.0743,-3.0762,-3.0775,-3.0793,-3.0833,-3.0835,-3.0852,-3.0857,-3.0862,-3.0866,-3.0888,-3.0895,-3.0816,-3.0816,-3.0816,0,0,-3.0642,-3.0652,-3.0666,-3.0694,-3.0703,-3.0727,-3.0703,-3.0728,-3.0745,-3.0728,-3.076,-3.0765,-3.0777,-3.0814,-3.083,-3.0819,-3.0889,-3.0866,-3.087,-3.0872,-3.0892,-3.0899,-3.0906,-3.0818,-3.0818,-3.0817,0,0,-3.0691,-3.0701,-3.0731,-3.0742,-3.0757,-3.0759,-3.0766,-3.0779,-3.0782,-3.0814,-3.0802,-3.0821,-3.0854,-3.0864,-3.0873,-3.0927,-3.0916,-3.0933,-3.0962,-3.0983,-3.0989,-3.0995,-3.1014,-3.1021,-3.0937,-3.0937,-3.0937,0,-3.0713,-3.0749,-3.0747,-3.0774,-3.0786,-3.0774,-3.0803,-3.0813,-3.0833,-3.0841,-3.0829,-3.0871,-3.0879,-3.0918,-3.0931,-3.0939,-3.0946,-3.0931,-3.0989,-3.0994,-3.0999,-3.1017,-3.1024,-3.0939,-3.0939,-3.0939,-3.0938,0,-3.0777,-3.0802,-3.0824,-3.0846,-3.086,-3.0888,-3.0889,-3.0904,-3.09,-3.0902,-3.0935,-3.0943,-3.0963,-3.0972,-3.0967,-3.1011,-3.1003,-3.099,-3.0967,-3.1009,-3.1026,-3.1033,-3.0942,-3.0941,-3.094,-3.094,0,0,-3.084,-3.0861,-3.0869,-3.0879,-3.0896,-3.0914,-3.0942,-3.0963,-3.0975,-3.099,-3.1012,-3.1041,-3.1029,-3.104,-3.1036,-3.1055,-3.1096,-3.1039,-3.1039,-3.1049,-3.1144,-3.1154,-3.1162,-3.1089,-3.1091,-3.1092,-3.1143,0,-3.089,-3.094,-3.0939,-3.0984,-3.1006,-3.0995,-3.1019,-3.1031,-3.1034,-3.1053,-3.1056,-3.1077,-3.106,-3.1066,-3.1084,-3.1087,-3.1115,-3.1084,-3.1109,-3.111,-3.1106,-3.1171,-3.1181,-3.1229,-3.1149,-3.115,-3.1151,0,-3.0955,-3.0973,-3.1021,-3.1035,-3.1045,-3.1066,-3.1085,-3.1104,-3.1117,-3.1118,-3.1131,-3.1124,-3.115,-3.1127,-3.1163,-3.1142,-3.1152,-3.1156,-3.1157,-3.1159,-3.1133,-3.1174,-3.1244,-3.1251,-3.1162,-3.1161,-3.116,0,-3.0996,-3.1033,-3.1067,-3.1075,-3.1092,-3.1108,-3.1115,-3.1127,-3.114,-3.1156,-3.1164,-3.1183,-3.1193,-3.1207,-3.1206,-3.1189,-3.1242,-3.1219,-3.1243,-3.1243,-3.1255,-3.1254,-3.1327,-3.1262,-3.1262,-3.1262,-3.1261,0,-3.1052,-3.1082,-3.1086,-3.1106,-3.1139,-3.1137,-3.1169,-3.1175,-3.1186,-3.1207,-3.1197,-3.1217,-3.1214,-3.1233,-3.1231,-3.1261,-3.1266,-3.1267,-3.1266,-3.1268,-3.1267,-3.1274,-3.127,-3.1264,-3.1263,-3.1263,-3.1262,0,-3.1104,-3.1108,-3.1144,-3.1157,-3.1161,-3.1185,-3.1196,-3.1215,-3.1218,-3.1244,-3.125,-3.1254,-3.1276,-3.1276,-3.1301,-3.13,-3.1337,-3.1332,-3.1333,-3.1332,-3.1356,-3.1354,-3.1435,-3.1446,-3.1374,-3.1375,-3.1376,0,-3.1139,-3.1162,-3.1179,-3.1193,-3.1202,-3.1224,-3.1238,-3.1237,-3.1251,-3.1268,-3.1285,-3.1306,-3.1323,-3.1359,-3.1363,-3.1382,-3.1378,-3.1405,-3.138,-3.1381,-3.1378,-3.1376,-3.1378,-3.141,-3.141,-3.1411,-3.1412,0,-3.1201,-3.1202,-3.1223,-3.1244,-3.1261,-3.1277,-3.1293,-3.1304,-3.1305,-3.1321,-3.1344,-3.1358,-3.1384,-3.1405,-3.1423,-3.1429,-3.142,-3.142,-3.1426,-3.1428,-3.1427,-3.1428,-3.1346,-3.1417,-3.1417,-3.1416,-3.1416,-3.1416,-3.1245,-3.1265,-3.1281,-3.1304,-3.1316,-3.133,-3.1349,-3.1355,-3.1375,-3.1397,-3.1395,-3.142,-3.1433,-3.1457,-3.1465,-3.1484,-3.1474,-3.1484,-3.1486,-3.1489,-3.1491,-3.1424,-3.1487,-3.1487,-3.1487,-3.1487,-3.1487,0,-3.1307,-3.1317,-3.1338,-3.1361,-3.1379,-3.1371,-3.1387,-3.1402,-3.1425,-3.1439,-3.1456,-3.1483,-3.1503,-3.151,-3.1529,-3.1544,-3.154,-3.1549,-3.1547,-3.1549,-3.1499,-3.1491,-3.1551,-3.1551,-3.1551,-3.1551,-3.1551,-3.1551,-3.1341,-3.1375,-3.1378,-3.1416,-3.1425,-3.1452,-3.1462,-3.1475,-3.1485,-3.1516,-3.1534,-3.1538,-3.1549,-3.1569,-3.1587,-3.1589,-3.1596,-3.1607,-3.1606,-3.1559,-3.1553,-3.1546,-3.1539,-3.1608,-3.1608,-3.1655,-3.1655,-3.1655]}]]